Current Weather Conditions: station 63115

sailwx.info

Wind from 160 at 4 knots

Wave height 0.9 meters (2 feet), 6 second period

Air temperature 8.8° C
Visibility: greater than 27.0 NM
Dewpoint 5.3° C

Last reported at 2014-Nov-21 18:00 UTC.
Time now 2014-Nov-21 19:17 UTC

Location: N 61°36' E 001°18'.
View on Google Maps.

See reports from other nearby stations

  
Tides and Currents Weather Stations Pressure Air Temp Water Temp Dewpoint Dewpoint Depression Visibility Wind Speed Wind Dir Waves Ship Positions
date/time (UTC)wind fromknots sea level pressurealtimeterstation pressurevisibilityair tempwater tempwave heightnotes
2014-Nov-21 18:00 160 4 27.0 8.8 0.9
2014-Nov-21 17:00 100 1 27.0 9.0 1.0
2014-Nov-21 16:00 070 2 27.0 9.1 1.0
2014-Nov-21 15:00 120 2 27.0 9.0 1.0
2014-Nov-21 14:00 070 4 27.0 9.4 0.9
2014-Nov-21 13:00 27.0 8.8 1.0
2014-Nov-21 12:00 27.0 8.9 1.0
2014-Nov-21 11:00 27.0 9.4 1.0
2014-Nov-21 10:00 210 0 27.0 9.2 1.0
2014-Nov-21 09:00 150 1 27.0 9.3 1.0
2014-Nov-21 08:00 150 2 10.8 9.6 1.1
2014-Nov-21 07:00 180 4 27.010.1 1.0
2014-Nov-21 06:00 160 4 27.011.1 1.1
2014-Nov-21 05:00 150 5 5.413.1 1.0
2014-Nov-21 04:00 150 5 5.412.8 1.0
2014-Nov-21 03:00 150 6 10.812.4 1.1
2014-Nov-21 02:00 150 6 10.8 8.7 1.0
2014-Nov-21 01:00 150 6 10.8 8.6 1.0
2014-Nov-21 00:00 140 5 10.8 8.3 1.0
2014-Nov-20 23:00
2014-Nov-20 22:00
2014-Nov-20 21:00 230 0 27.0 8.5 1.1
2014-Nov-20 20:00 2.2 8.5 1.2
2014-Nov-20 19:00 150 1 2.2 8.9 1.3
2014-Nov-20 18:00 10.8 8.8 1.2
2014-Nov-20 17:00 27.0 8.7 1.3
2014-Nov-20 16:00 10.8 8.8 1.1
2014-Nov-20 15:00 290 2 27.0 8.2 1.2
2014-Nov-20 14:00 270 6 27.0 8.1 1.2
2014-Nov-20 13:00 260 5 5.4 8.2 1.2
2014-Nov-20 12:00 250 2 10.8 8.4 1.3
2014-Nov-20 11:00 270 4 5.4 8.1 1.2
2014-Nov-20 10:00 260 5 2.2 7.9 1.3
2014-Nov-20 09:00 2.2 8.2 1.1
2014-Nov-20 08:00 030 6 1.1 8.7 1.1
2014-Nov-20 07:00 250 2 5.4 9.0 1.2
2014-Nov-20 06:00 290 5 5.4 9.1 1.0
2014-Nov-20 05:00 280 6 27.0 9.1 1.2
2014-Nov-20 04:00 280 6 27.0 9.1 1.1
2014-Nov-20 03:00 290 4 10.8 9.2 1.1
2014-Nov-20 02:00 270 4 10.8 9.4 1.1
2014-Nov-20 01:00 250 1 10.8 9.5 1.2
2014-Nov-20 00:00 290 1 10.8 9.5 1.2
2014-Nov-19 23:00 260 1 10.8 9.4 1.2
2014-Nov-19 22:00 240 2 10.8 9.7 1.2
2014-Nov-19 21:00 220 4 10.810.0 1.2
2014-Nov-19 20:00 190 1 10.810.1 1.2
2014-Nov-19 19:00 110 2 10.810.0 1.2